Airfield :
LOGIN :

Register | Disclaimer

   EN    FR    IT 

 










Legend :    VFR   Marginal VFR   IFR   Intensive IFR   Very Intensive IFR
Visi :
Ceiling :
>= 8 km
>= 3000ft
5 to 8 km
1000 to 3000 ft
1500m to 5 km
500 to 1000 ft
800 to 1500m
200 to 500 ft
< 800m
< 200 ft
Symbols :   Thunderstorms  Fog  Heavy snow  Heavy precipitations  Wind > 20 kt
SIGMETs :     Misc.  Thunderstorms  Icing  Turbulence  Mountain Waves  Volcanic Ashes







- Airport Elevation : 56 ft
- IATA code : BZR
- Download approach charts


LFMU - Beziers / Vias

CURRENT METAR :
  • 200900Z AUTO 26006KT CAVOK 10/05 Q1023 NOSIG

EXPIRED METARs :
  • 200830Z AUTO 27007KT 230V290 CAVOK 09/05 Q1023 NOSIG
  • 200800Z AUTO 25005KT 210V330 CAVOK 07/04 Q1023 NOSIG
  • 200730Z AUTO 28008KT CAVOK 05/03 Q1023 NOSIG
  • 200700Z AUTO 28008KT CAVOK 05/03 Q1022 NOSIG
  • 200630Z AUTO 27006KT CAVOK 06/02 Q1022 NOSIG

TAF TAF LFMU
Valid from the 20 at 09:00 until the 21 at 09:00 UTC


200800Z 2009/2109 30012KT CAVOK
TEMPO 2012/2109 VRB02KT
ATIS : +33 4 67 90 88 88
No reported NOTAMs for that airfield.



MET'MAP, your aeronautical weather chart ! - Copyright ORBIFLY December 2007 - Disclaimer

ORBIFLY MET'MAP TEAM :

Programming & Development : Alexandra Zaïnal
Concept & Development : Baudouin d'Aumeries
Co-Development & Prog : Marc-Olivier Méhu
Technical & hardware support : Manuel Goepfert

Contact : metmap@orbifly.com




SOURCES & CREDITS :

   NOAA